TRA106 BIAR-EHAM

Flight info

Callsign TRA106
Flight time 2h 25m
Altitude 35000
Route MAMEP1F MAMEP DCT MATIK/N0451F350 DCT BESGA DCT ROKAN DCT TOPPA
Aircraft B738/M-SDE2E3FGHIRWXY/LB1

Departure

Time 2026-05-09 17:26
Airport Akureyri International Airport (BIAR)

Arrival

Time 2026-05-09 19:51
Airport Amsterdam Airport Schiphol (EHAM)
Time Latitude Longitude Altitude Speed Heading
2026-05-09 17:26 65.73653 -18.09440 2816 ft 230 kts 348°
2026-05-09 17:26 65.74721 -18.10004 2945 ft 245 kts 348°
2026-05-09 17:27 65.76426 -18.10900 3542 ft 254 kts 348°
2026-05-09 17:27 65.78166 -18.11770 4314 ft 256 kts 348°
2026-05-09 17:27 65.79926 -18.12590 5054 ft 259 kts 347°
2026-05-09 17:27 65.81734 -18.12779 5796 ft 266 kts 12°
2026-05-09 17:28 65.83327 -18.10484 6579 ft 275 kts 46°
2026-05-09 17:28 65.84192 -18.06271 7237 ft 285 kts 77°
2026-05-09 17:28 65.84269 -18.01396 7913 ft 292 kts 96°
2026-05-09 17:28 65.83678 -17.96585 8514 ft 299 kts 114°
2026-05-09 17:29 65.82738 -17.92090 9177 ft 303 kts 118°
2026-05-09 17:29 65.81694 -17.87543 9791 ft 310 kts 119°
2026-05-09 17:29 65.80623 -17.82927 10428 ft 315 kts 120°
2026-05-09 17:29 65.79484 -17.78185 10698 ft 334 kts 120°
2026-05-09 17:30 65.78292 -17.73128 10864 ft 354 kts 118°
2026-05-09 17:30 65.77086 -17.67819 11128 ft 369 kts 117°
2026-05-09 17:30 65.75862 -17.62262 11620 ft 375 kts 117°
2026-05-09 17:30 65.74644 -17.56632 12288 ft 377 kts 116°
2026-05-09 17:31 65.73420 -17.50931 12845 ft 383 kts 116°
2026-05-09 17:31 65.72175 -17.45137 13441 ft 389 kts 116°
2026-05-09 17:32 65.65616 -17.23594 15778 ft 410 kts 135°
2026-05-09 17:32 65.63588 -17.18668 16346 ft 415 kts 135°
2026-05-09 17:32 65.61534 -17.13693 16918 ft 420 kts 135°
2026-05-09 17:33 65.59483 -17.08713 17525 ft 424 kts 135°
2026-05-09 17:33 65.57392 -17.03622 18094 ft 429 kts 134°
2026-05-09 17:33 65.55278 -16.98461 18617 ft 435 kts 134°
2026-05-09 17:33 65.53135 -16.93226 19081 ft 440 kts 134°
2026-05-09 17:34 65.50971 -16.87945 19555 ft 444 kts 134°
2026-05-09 17:35 65.37511 -16.55343 22320 ft 471 kts 134°
2026-05-09 17:35 65.35185 -16.49759 22737 ft 476 kts 134°
2026-05-09 17:36 65.32825 -16.44112 23153 ft 481 kts 134°
2026-05-09 17:36 65.30450 -16.38443 23566 ft 484 kts 134°
2026-05-09 17:36 65.28048 -16.32725 23956 ft 489 kts 134°
2026-05-09 17:36 65.25624 -16.26971 24300 ft 492 kts 134°
2026-05-09 17:37 65.23218 -16.21275 24658 ft 495 kts 134°
2026-05-09 17:37 65.20761 -16.15474 25009 ft 499 kts 134°
2026-05-09 17:37 65.18282 -16.09638 25360 ft 502 kts 134°
2026-05-09 17:37 65.15785 -16.03776 25690 ft 505 kts 134°
2026-05-09 17:38 65.13265 -15.97875 26029 ft 508 kts 134°
2026-05-09 17:38 65.10727 -15.91951 26363 ft 512 kts 134°
2026-05-09 17:38 65.08203 -15.86075 26661 ft 515 kts 134°
2026-05-09 17:39 65.03062 -15.74159 27378 ft 520 kts 134°
2026-05-09 17:39 65.00452 -15.68132 27669 ft 524 kts 134°
2026-05-09 17:39 64.97829 -15.62095 27974 ft 527 kts 134°
2026-05-09 17:39 64.95184 -15.56026 28283 ft 530 kts 134°
2026-05-09 17:40 64.92567 -15.50036 28555 ft 533 kts 134°
2026-05-09 17:40 64.89890 -15.43930 28839 ft 536 kts 134°
2026-05-09 17:40 64.87201 -15.37811 29113 ft 539 kts 134°
2026-05-09 17:40 64.84495 -15.31674 29382 ft 542 kts 134°
2026-05-09 17:41 64.81773 -15.25518 29637 ft 544 kts 134°
2026-05-09 17:41 64.79028 -15.19326 29870 ft 548 kts 134°
2026-05-09 17:41 64.76265 -15.13115 30119 ft 551 kts 134°
2026-05-09 17:41 64.73491 -15.06897 30436 ft 551 kts 134°
2026-05-09 17:42 64.70751 -15.00776 30764 ft 551 kts 134°
2026-05-09 17:42 64.67977 -14.94600 31076 ft 550 kts 134°
2026-05-09 17:42 64.65200 -14.88432 31375 ft 550 kts 134°
2026-05-09 17:42 64.62437 -14.82313 31740 ft 548 kts 134°
2026-05-09 17:43 64.59669 -14.76201 32046 ft 549 kts 134°
2026-05-09 17:43 64.56886 -14.70074 32250 ft 551 kts 134°
2026-05-09 17:43 64.54096 -14.63951 32555 ft 549 kts 134°
2026-05-09 17:43 64.51319 -14.57874 33051 ft 547 kts 134°
2026-05-09 17:44 64.48551 -14.51832 33428 ft 544 kts 134°
2026-05-09 17:44 64.45828 -14.45907 33720 ft 543 kts 134°
2026-05-09 17:44 64.43067 -14.39913 34008 ft 543 kts 134°
2026-05-09 17:44 64.40304 -14.33933 34269 ft 543 kts 134°
2026-05-09 17:45 64.37544 -14.27977 34499 ft 542 kts 134°
2026-05-09 17:45 64.34786 -14.22044 34779 ft 540 kts 134°
2026-05-09 17:45 64.32038 -14.16152 35095 ft 537 kts 134°
2026-05-09 17:45 64.29294 -14.10284 35263 ft 538 kts 134°
2026-05-09 17:46 64.26534 -14.04395 35242 ft 541 kts 134°
2026-05-09 17:46 64.21034 -13.92712 35249 ft 538 kts 135°
2026-05-09 17:47 64.15542 -13.81118 35252 ft 535 kts 135°
2026-05-09 17:47 64.10093 -13.69674 35255 ft 532 kts 135°
2026-05-09 17:48 64.04621 -13.58246 35267 ft 531 kts 135°
2026-05-09 17:48 63.99148 -13.46879 35269 ft 532 kts 135°
2026-05-09 17:49 63.93668 -13.35558 35326 ft 533 kts 135°
2026-05-09 17:49 63.88182 -13.24289 35270 ft 535 kts 135°
2026-05-09 17:50 63.82652 -13.12995 35263 ft 535 kts 135°
2026-05-09 17:50 63.74337 -12.96128 35256 ft 534 kts 135°
2026-05-09 17:51 63.68818 -12.85008 35263 ft 534 kts 135°
2026-05-09 17:51 63.63258 -12.73868 35275 ft 534 kts 136°
2026-05-09 17:52 63.57697 -12.62783 35272 ft 534 kts 136°
2026-05-09 17:52 63.52157 -12.51802 35278 ft 534 kts 136°
2026-05-09 17:53 63.46577 -12.40803 35279 ft 534 kts 136°
2026-05-09 17:53 63.41013 -12.29893 35338 ft 534 kts 136°
2026-05-09 17:54 63.35417 -12.18979 35279 ft 534 kts 136°
2026-05-09 17:54 63.29815 -12.08111 35277 ft 533 kts 136°
2026-05-09 17:55 63.24224 -11.97324 35272 ft 531 kts 136°
2026-05-09 17:55 63.18679 -11.86683 35277 ft 529 kts 136°
2026-05-09 17:56 63.13115 -11.76061 35273 ft 527 kts 136°
2026-05-09 17:57 63.04778 -11.60246 35282 ft 526 kts 136°
2026-05-09 17:57 62.99222 -11.49777 35283 ft 525 kts 136°
2026-05-09 17:58 62.93692 -11.39409 35276 ft 525 kts 136°
2026-05-09 17:58 62.88117 -11.29011 35288 ft 525 kts 136°
2026-05-09 17:59 62.82531 -11.18646 35323 ft 526 kts 137°
2026-05-09 17:59 62.76957 -11.08357 35290 ft 527 kts 137°
2026-05-09 18:00 62.71353 -10.98067 35277 ft 526 kts 137°
2026-05-09 18:00 62.65746 -10.87825 35284 ft 524 kts 137°
2026-05-09 18:01 62.60141 -10.77636 35286 ft 523 kts 137°
2026-05-09 18:01 62.54584 -10.67586 35287 ft 522 kts 137°
2026-05-09 18:02 62.48992 -10.57523 35287 ft 521 kts 137°
2026-05-09 18:02 62.43404 -10.47517 35284 ft 521 kts 137°
2026-05-09 18:03 62.37814 -10.37561 35289 ft 520 kts 137°
2026-05-09 18:03 62.32235 -10.27671 35291 ft 519 kts 137°
2026-05-09 18:04 62.26785 -10.18058 35317 ft 519 kts 138°
2026-05-09 18:04 62.21186 -10.08230 35299 ft 519 kts 138°
2026-05-09 18:05 62.15575 -9.98430 35277 ft 518 kts 138°
2026-05-09 18:05 62.10021 -9.88777 35288 ft 517 kts 138°
2026-05-09 18:06 62.04425 -9.79099 35291 ft 516 kts 138°
2026-05-09 18:06 61.98871 -9.69540 35293 ft 515 kts 138°
2026-05-09 18:07 61.93296 -9.59989 35293 ft 514 kts 139°
2026-05-09 18:07 61.87705 -9.50459 35284 ft 514 kts 139°
2026-05-09 18:08 61.82118 -9.40981 35293 ft 513 kts 139°
2026-05-09 18:08 61.76568 -9.31610 35293 ft 513 kts 139°
2026-05-09 18:09 61.70971 -9.22204 35317 ft 514 kts 139°
2026-05-09 18:09 61.65362 -9.12825 35309 ft 514 kts 139°
2026-05-09 18:10 61.59756 -9.03497 35284 ft 513 kts 139°
2026-05-09 18:10 61.54189 -8.94275 35294 ft 512 kts 139°
2026-05-09 18:11 61.48595 -8.85052 35296 ft 511 kts 140°
2026-05-09 18:11 61.42992 -8.75857 35299 ft 510 kts 140°
2026-05-09 18:12 61.37399 -8.66722 35296 ft 510 kts 140°
2026-05-09 18:12 61.31832 -8.57671 35293 ft 510 kts 140°
2026-05-09 18:13 61.26234 -8.48612 35302 ft 510 kts 140°
2026-05-09 18:13 61.20621 -8.39571 35300 ft 510 kts 140°
2026-05-09 18:14 61.15036 -8.30615 35314 ft 511 kts 141°
2026-05-09 18:14 61.09396 -8.21611 35304 ft 511 kts 141°
2026-05-09 18:15 61.04712 -8.14161 35292 ft 510 kts 141°
2026-05-09 18:15 60.98848 -8.05924 35288 ft 510 kts 153°
2026-05-09 18:16 60.92215 -8.00788 35306 ft 508 kts 162°
2026-05-09 18:16 60.85545 -7.96114 35294 ft 508 kts 161°
2026-05-09 18:17 60.79122 -7.90141 35286 ft 506 kts 146°
2026-05-09 18:17 60.73732 -7.81013 35306 ft 502 kts 132°
2026-05-09 18:18 60.68858 -7.70916 35305 ft 502 kts 132°
2026-05-09 18:18 60.63932 -7.60794 35302 ft 502 kts 133°
2026-05-09 18:19 60.58965 -7.50751 35310 ft 503 kts 133°
2026-05-09 18:19 60.51471 -7.35776 35301 ft 504 kts 133°
2026-05-09 18:20 60.46480 -7.25863 35308 ft 504 kts 133°
2026-05-09 18:20 60.41457 -7.15924 35309 ft 504 kts 133°
2026-05-09 18:21 60.36421 -7.06004 35296 ft 505 kts 133°
2026-05-09 18:21 60.31412 -6.96179 35307 ft 505 kts 134°
2026-05-09 18:22 60.26361 -6.86318 35300 ft 504 kts 134°
2026-05-09 18:22 60.21310 -6.76503 35309 ft 504 kts 134°
2026-05-09 18:23 60.16254 -6.66721 35342 ft 504 kts 134°
2026-05-09 18:23 60.11222 -6.57030 35315 ft 503 kts 135°
2026-05-09 18:24 60.06165 -6.47335 35309 ft 502 kts 135°
2026-05-09 18:25 59.98584 -6.32880 35301 ft 501 kts 135°
2026-05-09 18:25 59.93540 -6.23315 35312 ft 499 kts 135°
2026-05-09 18:26 59.88500 -6.13800 35307 ft 498 kts 135°
2026-05-09 18:26 59.83490 -6.04384 35319 ft 498 kts 135°
2026-05-09 18:27 59.78445 -5.94941 35311 ft 497 kts 135°
2026-05-09 18:27 59.73389 -5.85523 35326 ft 497 kts 136°
2026-05-09 18:28 59.68338 -5.76152 35312 ft 497 kts 136°
2026-05-09 18:28 59.63311 -5.66865 35312 ft 497 kts 136°
2026-05-09 18:29 59.58246 -5.57549 35317 ft 496 kts 136°
2026-05-09 18:29 59.53178 -5.48267 35309 ft 496 kts 136°
2026-05-09 18:30 59.48137 -5.39076 35294 ft 496 kts 136°
2026-05-09 18:30 59.43070 -5.29875 35305 ft 495 kts 136°
2026-05-09 18:31 59.38000 -5.20708 35321 ft 495 kts 137°
2026-05-09 18:31 59.32923 -5.11567 35335 ft 495 kts 137°
2026-05-09 18:32 59.27836 -5.02447 35315 ft 495 kts 137°
2026-05-09 18:32 59.22773 -4.93410 35316 ft 495 kts 137°
2026-05-09 18:33 59.17684 -4.84364 35308 ft 493 kts 137°
2026-05-09 18:33 59.12634 -4.75424 35310 ft 493 kts 137°
2026-05-09 18:34 59.07559 -4.66479 35319 ft 492 kts 137°
2026-05-09 18:34 59.02477 -4.57556 35326 ft 492 kts 138°
2026-05-09 18:35 58.97390 -4.48663 35326 ft 491 kts 138°
2026-05-09 18:35 58.92308 -4.39817 35335 ft 491 kts 139°
2026-05-09 18:36 58.87220 -4.30995 35316 ft 491 kts 139°
2026-05-09 18:36 58.82157 -4.22251 35326 ft 490 kts 139°
2026-05-09 18:37 58.77061 -4.13489 35314 ft 490 kts 139°
2026-05-09 18:37 58.71961 -4.04755 35315 ft 490 kts 139°
2026-05-09 18:38 58.66861 -3.96055 35319 ft 490 kts 139°
2026-05-09 18:38 58.61759 -3.87388 35317 ft 489 kts 139°
2026-05-09 18:40 58.41282 -3.52956 35293 ft 490 kts 140°
2026-05-09 18:41 58.36180 -3.44460 35315 ft 489 kts 140°
2026-05-09 18:41 58.31034 -3.35927 35321 ft 489 kts 140°
2026-05-09 18:42 58.25926 -3.27493 35311 ft 489 kts 140°
2026-05-09 18:42 58.20785 -3.19037 35305 ft 488 kts 140°
2026-05-09 18:43 58.15647 -3.10619 35296 ft 488 kts 140°
2026-05-09 18:43 58.10496 -3.02219 35328 ft 488 kts 141°
2026-05-09 18:44 58.05375 -2.93893 35309 ft 487 kts 141°
2026-05-09 18:44 58.00234 -2.85565 35319 ft 486 kts 141°
2026-05-09 18:45 57.95086 -2.77261 35318 ft 485 kts 141°
2026-05-09 18:45 57.89983 -2.69064 35321 ft 484 kts 141°
2026-05-09 18:46 57.84854 -2.60857 35306 ft 483 kts 142°
2026-05-09 18:46 57.79737 -2.52700 35311 ft 482 kts 142°
2026-05-09 18:47 57.74615 -2.44567 35313 ft 482 kts 142°
2026-05-09 18:47 57.69517 -2.36512 35318 ft 481 kts 142°
2026-05-09 18:48 57.64386 -2.28424 35308 ft 481 kts 142°
2026-05-09 18:48 57.59266 -2.20380 35305 ft 480 kts 143°
2026-05-09 18:49 57.54179 -2.12424 35304 ft 480 kts 143°
2026-05-09 18:49 57.49071 -2.04411 35307 ft 480 kts 143°
2026-05-09 18:50 57.43977 -1.96405 35306 ft 480 kts 143°
2026-05-09 18:50 57.38869 -1.88407 35300 ft 480 kts 143°
2026-05-09 18:51 57.33783 -1.80478 35299 ft 479 kts 143°
2026-05-09 18:51 57.28674 -1.72550 35305 ft 478 kts 144°
2026-05-09 18:52 57.23579 -1.64668 35296 ft 477 kts 144°
2026-05-09 18:52 57.18492 -1.56829 35298 ft 475 kts 144°
2026-05-09 18:53 57.13426 -1.49050 35300 ft 473 kts 144°
2026-05-09 18:53 57.08362 -1.41307 35286 ft 471 kts 144°
2026-05-09 18:54 57.03346 -1.33663 35294 ft 470 kts 144°
2026-05-09 18:54 56.98303 -1.26006 35303 ft 469 kts 144°
2026-05-09 18:55 56.93299 -1.18438 35305 ft 469 kts 144°
2026-05-09 18:55 56.88254 -1.10840 35304 ft 469 kts 145°
2026-05-09 18:56 56.83211 -1.03262 35269 ft 469 kts 145°
2026-05-09 18:56 56.78203 -0.95765 35289 ft 468 kts 145°
2026-05-09 18:57 56.73148 -0.88226 35290 ft 468 kts 145°
2026-05-09 18:57 56.68096 -0.80719 35292 ft 468 kts 145°
2026-05-09 18:58 56.63077 -0.73289 35294 ft 468 kts 146°
2026-05-09 18:58 56.58007 -0.65809 35289 ft 469 kts 146°
2026-05-09 18:59 56.52936 -0.58354 35282 ft 468 kts 146°
2026-05-09 18:59 56.48729 -0.52189 35282 ft 468 kts 146°
2026-05-09 19:00 56.43666 -0.44794 35284 ft 467 kts 146°
2026-05-09 19:00 56.36100 -0.33787 35282 ft 467 kts 146°
2026-05-09 19:01 56.31038 -0.26461 35278 ft 466 kts 146°
2026-05-09 19:01 56.25976 -0.19160 35270 ft 465 kts 146°
2026-05-09 19:02 56.20906 -0.11871 35278 ft 465 kts 146°
2026-05-09 19:02 56.15850 -0.04627 35280 ft 464 kts 146°
2026-05-09 19:03 56.10830 0.02541 35274 ft 463 kts 147°
2026-05-09 19:03 56.05779 0.09728 35272 ft 463 kts 147°
2026-05-09 19:04 56.00732 0.16885 35274 ft 462 kts 147°
2026-05-09 19:04 55.95695 0.24002 35270 ft 461 kts 147°
2026-05-09 19:05 55.90655 0.31100 35270 ft 461 kts 147°
2026-05-09 19:05 55.85654 0.38118 35266 ft 460 kts 147°
2026-05-09 19:06 55.80616 0.45165 35266 ft 460 kts 147°
2026-05-09 19:06 55.75578 0.52189 35257 ft 459 kts 147°
2026-05-09 19:07 55.70551 0.59173 35260 ft 458 kts 147°
2026-05-09 19:07 55.65552 0.66096 35252 ft 457 kts 147°
2026-05-09 19:08 55.60526 0.73032 35252 ft 456 kts 147°
2026-05-09 19:08 55.55548 0.79880 35249 ft 456 kts 147°
2026-05-09 19:09 55.50530 0.86758 35243 ft 455 kts 147°
2026-05-09 19:09 55.45529 0.93592 35243 ft 454 kts 147°
2026-05-09 19:10 55.40531 1.00400 35250 ft 453 kts 147°
2026-05-09 19:10 55.35573 1.07130 35246 ft 453 kts 147°
2026-05-09 19:11 55.30575 1.13893 35233 ft 452 kts 147°
2026-05-09 19:11 55.25583 1.20625 35208 ft 452 kts 147°
2026-05-09 19:12 55.20600 1.27324 35231 ft 451 kts 147°
2026-05-09 19:12 55.15610 1.34009 35226 ft 451 kts 147°
2026-05-09 19:13 55.10646 1.40639 35224 ft 451 kts 147°
2026-05-09 19:13 55.05649 1.47291 35223 ft 451 kts 147°
2026-05-09 19:14 55.00645 1.53932 35212 ft 452 kts 147°
2026-05-09 19:14 54.95639 1.60554 35204 ft 452 kts 147°
2026-05-09 19:15 54.90631 1.67154 35205 ft 451 kts 147°
2026-05-09 19:15 54.85632 1.73727 35198 ft 450 kts 148°
2026-05-09 19:16 54.80659 1.80244 35197 ft 449 kts 148°
2026-05-09 19:16 54.75670 1.86762 35198 ft 448 kts 148°
2026-05-09 19:17 54.70693 1.93242 35189 ft 447 kts 148°
2026-05-09 19:17 54.65726 1.99687 35190 ft 446 kts 148°
2026-05-09 19:18 54.60759 2.06113 35188 ft 445 kts 148°
2026-05-09 19:18 54.55824 2.12477 35188 ft 445 kts 148°
2026-05-09 19:19 54.50866 2.18852 35180 ft 444 kts 148°
2026-05-09 19:19 54.45915 2.25198 35167 ft 443 kts 148°
2026-05-09 19:20 54.40963 2.31527 35179 ft 443 kts 148°
2026-05-09 19:20 54.36006 2.37841 35180 ft 442 kts 148°
2026-05-09 19:21 54.31089 2.44086 35179 ft 442 kts 148°
2026-05-09 19:21 54.26135 2.50358 35180 ft 442 kts 148°
2026-05-09 19:22 54.21173 2.56621 35152 ft 443 kts 148°
2026-05-09 19:22 54.16208 2.62869 35179 ft 443 kts 148°
2026-05-09 19:23 54.11261 2.69076 35166 ft 443 kts 148°
2026-05-09 19:23 54.06281 2.75305 35178 ft 444 kts 148°
2026-05-09 19:24 54.01291 2.81527 35174 ft 444 kts 148°
2026-05-09 19:24 53.98787 2.84641 34852 ft 449 kts 148°
2026-05-09 19:24 53.96264 2.87773 34336 ft 448 kts 148°
2026-05-09 19:25 53.93747 2.90897 33634 ft 448 kts 148°
2026-05-09 19:25 53.91266 2.93971 33005 ft 446 kts 148°
2026-05-09 19:25 53.88757 2.97075 32401 ft 444 kts 148°
2026-05-09 19:25 53.86279 3.00139 31972 ft 439 kts 148°
2026-05-09 19:26 53.83815 3.03180 31502 ft 435 kts 149°
2026-05-09 19:26 53.81373 3.06188 31047 ft 431 kts 149°
2026-05-09 19:26 53.78961 3.09153 30610 ft 427 kts 149°
2026-05-09 19:26 53.76560 3.12100 30165 ft 424 kts 149°
2026-05-09 19:27 53.74208 3.14983 29670 ft 419 kts 149°
2026-05-09 19:27 53.71861 3.17856 29222 ft 414 kts 149°
2026-05-09 19:27 53.69537 3.20697 28760 ft 410 kts 149°
2026-05-09 19:27 53.67233 3.23510 28311 ft 406 kts 149°
2026-05-09 19:28 53.64948 3.26294 27875 ft 402 kts 149°
2026-05-09 19:28 53.62687 3.29045 27447 ft 399 kts 149°
2026-05-09 19:28 53.60450 3.31764 27012 ft 396 kts 149°
2026-05-09 19:28 53.58220 3.34471 26591 ft 393 kts 149°
2026-05-09 19:29 53.56025 3.37132 26171 ft 390 kts 149°
2026-05-09 19:29 53.53823 3.39798 25759 ft 388 kts 149°
2026-05-09 19:29 53.51634 3.42445 25341 ft 386 kts 149°
2026-05-09 19:29 53.49458 3.45072 24938 ft 384 kts 149°
2026-05-09 19:30 53.47303 3.47673 24528 ft 382 kts 149°
2026-05-09 19:30 53.45147 3.50271 24122 ft 380 kts 148°
2026-05-09 19:30 53.43001 3.52853 23711 ft 379 kts 148°
2026-05-09 19:30 53.40861 3.55337 23233 ft 375 kts 154°
2026-05-09 19:31 53.38460 3.56779 22807 ft 363 kts 173°
2026-05-09 19:31 53.35987 3.57510 22391 ft 360 kts 174°
2026-05-09 19:31 53.33525 3.58195 21972 ft 357 kts 174°
2026-05-09 19:31 53.31076 3.58872 21564 ft 355 kts 174°
2026-05-09 19:32 53.28642 3.59553 21161 ft 353 kts 174°
2026-05-09 19:32 53.26220 3.60239 20765 ft 353 kts 173°
2026-05-09 19:32 53.23794 3.61125 20121 ft 361 kts 168°
2026-05-09 19:32 53.21348 3.62315 19424 ft 369 kts 165°
2026-05-09 19:33 53.18898 3.63606 18950 ft 369 kts 165°
2026-05-09 19:33 53.16480 3.64893 18543 ft 367 kts 165°
2026-05-09 19:33 53.14046 3.66175 18089 ft 366 kts 165°
2026-05-09 19:33 53.11622 3.67432 17641 ft 364 kts 165°
2026-05-09 19:34 53.09208 3.68667 17209 ft 361 kts 165°
2026-05-09 19:34 53.06808 3.69883 16810 ft 358 kts 165°
2026-05-09 19:34 53.04460 3.71065 16422 ft 355 kts 165°
2026-05-09 19:34 53.02099 3.72249 16025 ft 353 kts 165°
2026-05-09 19:35 52.99754 3.73422 15635 ft 351 kts 166°
2026-05-09 19:35 52.97422 3.74586 15245 ft 348 kts 166°
2026-05-09 19:35 52.95108 3.75740 14863 ft 346 kts 166°
2026-05-09 19:35 52.92804 3.76888 14471 ft 344 kts 166°
2026-05-09 19:36 52.90513 3.78027 14097 ft 343 kts 166°
2026-05-09 19:36 52.88232 3.79160 13684 ft 341 kts 166°
2026-05-09 19:36 52.85991 3.80273 13275 ft 339 kts 166°
2026-05-09 19:36 52.83738 3.81390 12915 ft 337 kts 166°
2026-05-09 19:37 52.81487 3.82505 12523 ft 338 kts 166°
2026-05-09 19:37 52.79227 3.83623 12135 ft 338 kts 166°
2026-05-09 19:37 52.76979 3.84734 11748 ft 336 kts 165°
2026-05-09 19:37 52.74735 3.85841 11368 ft 335 kts 165°
2026-05-09 19:38 52.72512 3.86938 10998 ft 333 kts 166°
2026-05-09 19:38 52.70304 3.88027 10762 ft 327 kts 166°
2026-05-09 19:38 52.68187 3.89071 10573 ft 319 kts 166°
2026-05-09 19:38 52.66092 3.90101 10398 ft 312 kts 165°
2026-05-09 19:39 52.64026 3.91117 10222 ft 305 kts 165°
2026-05-09 19:39 52.62005 3.92108 10049 ft 299 kts 165°
2026-05-09 19:39 52.60033 3.93075 9756 ft 297 kts 165°
2026-05-09 19:39 52.58058 3.94043 9430 ft 296 kts 166°
2026-05-09 19:40 52.56082 3.95008 9123 ft 295 kts 166°
2026-05-09 19:40 52.54146 3.96004 8805 ft 295 kts 160°
2026-05-09 19:40 52.52479 3.97952 8466 ft 298 kts 130°
2026-05-09 19:40 52.51459 4.00884 8203 ft 296 kts 114°
2026-05-09 19:41 52.50690 4.03998 7897 ft 295 kts 113°
2026-05-09 19:41 52.49938 4.07156 7595 ft 294 kts 112°
2026-05-09 19:41 52.49199 4.10274 7288 ft 293 kts 113°
2026-05-09 19:41 52.48460 4.13364 7010 ft 292 kts 113°
2026-05-09 19:42 52.47530 4.16304 6693 ft 288 kts 133°
2026-05-09 19:42 52.46025 4.18353 6517 ft 278 kts 150°
2026-05-09 19:42 52.44396 4.19997 6324 ft 272 kts 152°
2026-05-09 19:42 52.42782 4.21562 6117 ft 267 kts 152°
2026-05-09 19:43 52.41190 4.23096 5696 ft 265 kts 153°
2026-05-09 19:43 52.39630 4.24622 5395 ft 258 kts 152°
2026-05-09 19:43 52.38615 4.25611 5228 ft 253 kts 152°
2026-05-09 19:43 52.36647 4.27525 4888 ft 242 kts 152°
2026-05-09 19:44 52.35207 4.28892 4621 ft 236 kts 152°
2026-05-09 19:44 52.33802 4.30198 4393 ft 230 kts 152°
2026-05-09 19:44 52.32858 4.31061 4287 ft 231 kts 152°
2026-05-09 19:44 52.31529 4.32501 4024 ft 235 kts 138°
2026-05-09 19:45 52.30357 4.34363 3787 ft 234 kts 137°
2026-05-09 19:45 52.29181 4.36197 3522 ft 234 kts 137°
2026-05-09 19:45 52.27993 4.38011 3270 ft 233 kts 137°
2026-05-09 19:45 52.26799 4.39796 2994 ft 233 kts 137°
2026-05-09 19:46 52.25595 4.41565 2755 ft 233 kts 136°
2026-05-09 19:46 52.24385 4.43295 2504 ft 233 kts 137°
2026-05-09 19:46 52.23173 4.44991 2401 ft 221 kts 137°
2026-05-09 19:46 52.22041 4.46568 2291 ft 208 kts 136°
2026-05-09 19:47 52.21235 4.48378 2141 ft 191 kts 102°
2026-05-09 19:47 52.21050 4.50449 2073 ft 191 kts 93°
2026-05-09 19:47 52.20954 4.52609 2020 ft 189 kts 81°
2026-05-09 19:47 52.21481 4.54393 1996 ft 171 kts 44°
2026-05-09 19:48 52.22191 4.55924 1975 ft 172 kts 64°
2026-05-09 19:48 52.22748 4.57672 1994 ft 174 kts 55°
2026-05-09 19:48 52.23384 4.59298 1970 ft 168 kts 54°
2026-05-09 19:48 52.23994 4.60873 1814 ft 159 kts 56°
2026-05-09 19:49 52.24560 4.62353 1638 ft 150 kts 55°
2026-05-09 19:49 52.25108 4.63784 1412 ft 151 kts 56°
2026-05-09 19:49 52.25657 4.65221 1213 ft 148 kts 54°
2026-05-09 19:49 52.26190 4.66613 1004 ft 143 kts 55°
2026-05-09 19:50 52.26720 4.68000 817 ft 144 kts 55°
2026-05-09 19:50 52.27247 4.69387 641 ft 147 kts 55°
2026-05-09 19:50 52.27792 4.70805 468 ft 147 kts 55°
2026-05-09 19:50 52.28338 4.72216 265 ft 146 kts 56°
2026-05-09 19:51 52.28864 4.73606 56 ft 145 kts 57°
2026-05-09 19:51 52.29365 4.74904 -2 ft 128 kts 56°
2026-05-09 19:51 52.29734 4.75863 -3 ft 67 kts 58°
2026-05-09 19:51 52.29908 4.76314 -5 ft 40 kts 57°
2026-05-09 19:52 52.30089 4.76588 -3 ft 33 kts 29°
2026-05-09 19:52 52.30197 4.76684 -2 ft 11 kts 28°
2026-05-09 19:52 52.30267 4.76745 -2 ft 13 kts 35°
2026-05-09 19:52 52.30333 4.76875 -2 ft 17 kts 57°
2026-05-09 19:53 52.30405 4.77032 -2 ft 16 kts 24°
2026-05-09 19:53 52.30506 4.76971 -2 ft 16 kts 325°
2026-05-09 19:53 52.30594 4.76861 -2 ft 16 kts 305°
2026-05-09 19:53 52.30667 4.76737 -2 ft 13 kts 329°
2026-05-09 19:54 52.30690 4.76681 -2 ft 4 kts 253°
2026-05-09 19:54 52.30678 4.76642 -2 ft 4 kts 249°
2026-05-09 19:54 52.30670 4.76608 -2 ft 3 kts 248°
2026-05-09 19:54 52.30667 4.76596 -2 ft 1 kts 248°
2026-05-09 19:55 52.30667 4.76592 -2 ft 0 kts 248°